Weather History for Huron, SD

Change the Weather History Date:

Monday, December 31, 2012

  Actual Average Record
Temperature  
Mean Temperature 18 °F 17 °F  
Max Temperature 22 °F 27 °F 53 °F (1999)
Min Temperature 14 °F 7 °F -23 °F (1967)
Degree Days  
Heating Degree Days 47 48  
Month to date heating degree days 1388 1417  
Since 1 July heating degree days 3074 3120  
Cooling Degree Days 0 0  
Month to date cooling degree days 0 0  
Year to date cooling degree days 1083 742  
Moisture  
Dew Point 12 °F    
Average Humidity 79    
Maximum Humidity 84    
Minimum Humidity 73    
Precipitation  
Precipitation 0.00 in 0.02 in 0.44 in (1887)
Month to date precipitation 1.12 0.52  
Year to date precipitation 19.66 22.90  
Snow  
Snow 0.00 in 0.30 in 6.50 in (2010)
Month to date snowfall 13.0 8.0  
Since 1 July snowfall 14.1 16.3  
Snow Depth 5.00 in    
Sea Level Pressure  
Sea Level Pressure 30.25 in    
Wind  
Wind Speed 6 mph (NNE)    
Max Wind Speed 13 mph    
Max Gust Speed 15 mph    
Visibility 10 miles    
Events      
T = Trace of Precipitation, MM = Missing Value Source: NWS Daily Summary

Daily Weather History Graph

Daily Weather History Graph

Search for Another Location

Airport:

Trip Planner

Search our weather history database for the weather conditions in past years. The results will help you decide how hot, cold, wet, or windy it might be!

Date:

Astronomy

Dec. 31, 2012 Rise Set
Actual Time 8:08 AM CST 5:03 PM CST
Civil Twilight 7:35 AM CST 5:36 PM CST
Nautical Twilight 6:59 AM CST 6:13 PM CST
Astronomical Twilight 6:23 AM CST 6:48 PM CST
Moon 8:44 PM CST (12/31) 9:43 AM CST (12/31)
Length of Visible Light 10h 01m
Length of Day
8h 54m
Waning Gibbous, 90% of the Moon is Illuminated
Dec 31
Waning Gibbous
Jan 4
Last Quarter
Jan 11
New
Jan 18
First Quarter
Jan 26
Full

Hourly Weather History & Observations

Time (CST) Temp. Windchill Dew Point Humidity Pressure Visibility Wind Dir Wind Speed Gust Speed Precip Events Conditions
12:55 AM 21.9 °F 12.5 °F 18.0 °F 85% 30.19 in 10.0 mi North 8.1 mph - N/A   Overcast
1:05 AM 21.2 °F 11.7 °F 17.6 °F 86% 30.13 in 10.0 mi North 8.1 mph - N/A   Overcast
1:20 AM 21.2 °F 12.6 °F 17.6 °F 86% 30.13 in 10.0 mi North 6.9 mph - N/A   Overcast
1:55 AM 21.0 °F 13.4 °F 17.1 °F 85% 30.21 in 10.0 mi NNE 5.8 mph - N/A   Overcast
2:55 AM 19.9 °F 14.9 °F 16.0 °F 85% 30.24 in 10.0 mi West 3.5 mph - N/A   Overcast
3:55 AM 21.0 °F 9.9 °F 16.0 °F 81% 30.25 in 10.0 mi North 10.4 mph - N/A   Overcast
4:55 AM 19.0 °F 10.0 °F 12.9 °F 77% 30.25 in 10.0 mi North 6.9 mph - N/A   Overcast
5:55 AM 19.0 °F 11.1 °F 12.0 °F 74% 30.25 in 10.0 mi North 5.8 mph - N/A   Overcast
6:55 AM 18.0 °F 7.7 °F 12.0 °F 78% 30.26 in 10.0 mi North 8.1 mph - N/A   Overcast
7:55 AM 17.1 °F 6.6 °F 10.9 °F 77% 30.28 in 9.0 mi North 8.1 mph - N/A   Overcast
8:55 AM 16.0 °F 4.4 °F 9.0 °F 74% 30.28 in 10.0 mi North 9.2 mph - N/A   Overcast
9:55 AM 15.1 °F 6.4 °F 9.0 °F 77% 30.29 in 10.0 mi North 5.8 mph - N/A   Overcast
10:02 AM 15.8 °F 6.1 °F 8.6 °F 73% 30.22 in 10.0 mi North 6.9 mph - N/A   Overcast
10:55 AM 15.1 °F 4.2 °F 9.0 °F 77% 30.27 in 10.0 mi North 8.1 mph - N/A   Overcast
11:55 AM 15.1 °F 4.2 °F 9.0 °F 77% 30.27 in 10.0 mi NNW 8.1 mph - N/A   Overcast
12:55 PM 15.1 °F 5.2 °F 9.0 °F 77% 30.26 in 10.0 mi North 6.9 mph - N/A   Overcast
1:55 PM 15.1 °F 6.4 °F 9.0 °F 77% 30.26 in 10.0 mi ENE 5.8 mph - N/A   Overcast
2:50 PM 15.8 °F - 8.6 °F 73% 30.19 in 10.0 mi Calm Calm - N/A   Overcast
2:55 PM 15.1 °F 9.4 °F 9.0 °F 77% 30.26 in 10.0 mi NE 3.5 mph - N/A   Overcast
3:55 PM 15.1 °F - 9.0 °F 77% 30.27 in 10.0 mi Calm Calm - N/A   Overcast
4:55 PM 14.0 °F 8.2 °F 9.0 °F 80% 30.27 in 10.0 mi East 3.5 mph - N/A   Overcast
5:55 PM 15.1 °F - 10.0 °F 80% 30.27 in 10.0 mi Calm Calm - N/A   Overcast
6:55 PM 15.1 °F 9.4 °F 10.0 °F 80% 30.27 in 10.0 mi SSE 3.5 mph - N/A   Overcast
7:55 PM 15.1 °F 9.4 °F 10.0 °F 80% 30.27 in 10.0 mi SE 3.5 mph - N/A   Overcast
8:55 PM 15.8 °F 8.6 °F 10.4 °F 79% 30.18 in 10.0 mi SSE 4.6 mph - N/A   Overcast
9:55 PM 16.0 °F 7.4 °F 10.9 °F 81% 30.25 in 10.0 mi SSE 5.8 mph - N/A   Overcast
10:55 PM 17.1 °F 7.6 °F 12.0 °F 81% 30.26 in 10.0 mi SSE 6.9 mph - N/A   Overcast
11:55 PM 17.1 °F 7.6 °F 12.0 °F 81% 30.27 in 10.0 mi South 6.9 mph - N/A   Overcast